[[{"header":{"parameterUnit":"m.s-1","parameterCategory":2,"la1":30.2991,"la2":30.254,"lo1":-89.0895,"lo2":-89.0444,"dy":0.0017,"dx":0.0017,"nx":28,"ny":28,"refTime":"2024-06-18T21:00:00:Z","depth":"0","parameterNumber":2,"parameterNumberName":"U-component_of_CURRENTS"},"data":[0,0,0,0,0,0,0,0,0,0,0,0,0,0,0,0,0,0,0,0,0,0,0,0,0,0,0,0,0,0,0,0,0,0,0,0,0,0,0,0,0,0,0,0,0,0,0,0,0,0,0,0,0,0,0,0,0,0,0.2402,0.2402,0,0.2388,0.2388,0.2387,0.2353,0.2353,0.2352,0.2352,0.2322,0.2321,0.2321,0,0,0,0,0,0,0,0,0,0,0,0,0,0.242,0.2419,0.2402,0.2402,0.2402,0.2388,0.2388,0.2387,0.2353,0.2353,0.2352,0.2352,0.2322,0.2321,0.2321,0,0,0,0,0,0,0,0,0,0,0,0,0,0.2407,0.2419,0.2402,0.2386,0.2385,0.2388,0.2388,0.2387,0.2353,0.2353,0.2352,0.2351,0.2322,0.2321,0.2321,0.233,0,0,0.2319,0.2319,0,0,0,0,0,0,0,0,0.2407,0.2405,0.2388,0.2387,0.2386,0.2375,0.2383,0.2368,0.2353,0.2362,0.2352,0.2351,0.234,0.2338,0.2333,0.2329,0.2327,0.2319,0.2319,0.2318,0.2318,0,0,0,0,0,0,0,0.2408,0.2406,0.2393,0.2388,0.2387,0.2387,0.2384,0.238,0.2352,0.2361,0.2359,0.2363,0.2339,0.2333,0.2332,0.2327,0.2319,0.2318,0.2318,0.2318,0.2335,0.2336,0,0,0,0,0,0,0.2416,0.2407,0.2394,0.2393,0.2399,0.2387,0.2383,0.2376,0.2352,0.2349,0.2364,0.2362,0.2335,0.2333,0.2331,0.2345,0.2318,0.2318,0.2317,0.2334,0.2335,0.2336,0,0,0,0,0,0,0.2416,0.2414,0.2394,0.2403,0.2401,0.2388,0.238,0.2376,0.2371,0.2355,0.2351,0.2363,0.2334,0.2332,0.2328,0.2343,0.2317,0.2317,0.2333,0.2334,0.2335,0.2371,0,0,0,0,0,0,0.2416,0.2414,0.2414,0.2403,0.2401,0.2397,0.2381,0.2377,0.2376,0.2373,0.2353,0.2349,0.2333,0.2329,0.2328,0.2342,0.2316,0.2332,0.2334,0.2335,0.2369,0.2373,0.2377,0,0,0,0,0,0.2417,0.2417,0.2414,0.2413,0.24,0.2398,0.2396,0.2383,0.2377,0.2376,0.2363,0.235,0.2338,0.2329,0.2327,0.2342,0.2331,0.2333,0.2335,0.2367,0.2372,0.2377,0,0,0,0,0,0,0.242,0.2414,0.241,0.2407,0.2405,0.2393,0.2395,0.2389,0.2378,0.2377,0.2357,0.2353,0.2359,0.2347,0.2338,0.2353,0.2334,0.2336,0.236,0.2365,0.2369,0.2384,0.2316,0,0,0,0,0,0.2424,0.2425,0.2418,0.2418,0.2417,0.2408,0.2408,0.2401,0.2392,0.2386,0.2373,0.2365,0.2366,0.2361,0.2358,0.2362,0.2374,0.2372,0.2377,0.238,0.2392,0.2427,0.2436,0.2342,0.2342,0.2342,0,0,0.2424,0.2425,0.2423,0.242,0.2416,0.2416,0.2405,0.2407,0.2411,0.2387,0.2385,0.2381,0.2372,0.2378,0.238,0.2367,0.2413,0.2383,0.2386,0.2396,0.243,0.2439,0.2448,0.2343,0.2343,0.2343,0,0,0.2432,0.2426,0.2431,0.2429,0.2433,0.2429,0.2432,0.2424,0.2422,0.2423,0.2414,0.2422,0.2408,0.2413,0.2412,0.244,0.2438,0.2436,0.2463,0.2497,0.2505,0.2513,0.2539,0.2548,0.2432,0.2433,0.2433,0,0.2432,0.2432,0.2433,0.2437,0.2436,0.2435,0.2436,0.244,0.2434,0.2442,0.2426,0.2437,0.2428,0.2453,0.246,0.2451,0.2466,0.2443,0.2503,0.2511,0.2518,0.2543,0.2553,0.2434,0.2434,0.2434,0.2434,0,0.2441,0.2439,0.2442,0.2445,0.2449,0.2449,0.2455,0.2465,0.2464,0.2467,0.249,0.2484,0.2493,0.2493,0.2482,0.2529,0.2523,0.2509,0.2492,0.253,0.2553,0.2563,0.2437,0.2437,0.2436,0.2435,0,0,0.2427,0.2444,0.2441,0.2442,0.245,0.2451,0.2473,0.2489,0.251,0.2511,0.2536,0.2546,0.2553,0.2554,0.2551,0.2576,0.2635,0.2564,0.2565,0.2592,0.271,0.2698,0.2707,0.2632,0.2634,0.2636,0.2707,0,0.2425,0.2432,0.2446,0.2449,0.2445,0.2462,0.2484,0.2506,0.2523,0.2548,0.2566,0.2584,0.2574,0.2581,0.2611,0.2632,0.2663,0.2617,0.2668,0.267,0.2656,0.2719,0.2597,0.265,0.2716,0.2718,0.2719,0,0.2415,0.2422,0.2425,0.2446,0.2449,0.2461,0.2497,0.252,0.257,0.2585,0.2619,0.2628,0.2675,0.2652,0.2726,0.2697,0.2713,0.2724,0.2727,0.2712,0.2676,0.2623,0.2665,0.2579,0.2734,0.2733,0.2732,0,0.2385,0.2401,0.2404,0.2406,0.2436,0.2455,0.248,0.253,0.2558,0.2614,0.264,0.2689,0.2721,0.2755,0.2787,0.276,0.2864,0.2825,0.2831,0.2829,0.2736,0.2723,0.2703,0.2882,0.2882,0.2882,0.2882,0,0.2362,0.2358,0.2392,0.2386,0.2405,0.2441,0.2475,0.2514,0.2575,0.2612,0.266,0.27,0.275,0.2807,0.2819,0.2872,0.2896,0.286,0.2858,0.2744,0.2732,0.2659,0.2588,0.2885,0.2884,0.2884,0.2883,0,0.2315,0.2337,0.2334,0.2369,0.2386,0.2399,0.2461,0.2488,0.2562,0.2615,0.2634,0.2726,0.2806,0.2857,0.2923,0.292,0.2863,0.2965,0.2829,0.2811,0.2715,0.2649,0.2568,0.2472,0.2978,0.2978,0.2978,0,0.2287,0.228,0.2308,0.2312,0.2326,0.2359,0.2386,0.2464,0.25,0.2624,0.2647,0.2753,0.2801,0.2915,0.2947,0.299,0.2871,0.2889,0.2815,0.2718,0.2644,0.2545,0.2461,0.2701,0.2699,0.2697,0.2696,0,0.2226,0.2237,0.2244,0.2255,0.2275,0.2291,0.234,0.2363,0.2464,0.2519,0.2599,0.2649,0.2795,0.2803,0.2891,0.2888,0.2719,0.2857,0.2785,0.2461,0.2321,0.2224,0.2646,0.2681,0.2682,0.2683,0.2684,0.2685,0.2181,0.2168,0.2183,0.2181,0.2205,0.2203,0.2169,0.224,0.2278,0.2317,0.2468,0.2493,0.2617,0.2729,0.2749,0.268,0.2641,0.2558,0.2499,0.2422,0.2281,0.2682,0.2698,0.2699,0.2701,0.2702,0.2703,0,0.211,0.2106,0.2105,0.2095,0.2062,0.2104,0.2115,0.2056,0.2043,0.2149,0.2194,0.2276,0.2314,0.241,0.2433,0.2332,0.2229,0.2227,0.2036,0.198,0.2368,0.231,0.2206,0.2206,0.2206,0.2206,0.2206,0.2206,0.2077,0.204,0.2027,0.1943,0.1924,0.1826,0.1784,0.1739,0.1765,0.1759,0.1794,0.1892,0.205,0.2116,0.2062,0.2012,0.1817,0.1731,0.1716,0.1967,0.1993,0.2017,0.1949,0.177,0.1769,0.1258,0.1253,0.125]},{"header":{"parameterUnit":"m.s-1","parameterCategory":2,"la1":30.2991,"la2":30.254,"lo1":-89.0895,"lo2":-89.0444,"dy":0.0017,"dx":0.0017,"nx":28,"ny":28,"refTime":"2024-06-18T21:00:00:Z","depth":"0","parameterNumber":3,"parameterNumberName":"V-component_of_CURRENTS"},"data":[0,0,0,0,0,0,0,0,0,0,0,0,0,0,0,0,0,0,0,0,0,0,0,0,0,0,0,0,0,0,0,0,0,0,0,0,0,0,0,0,0,0,0,0,0,0,0,0,0,0,0,0,0,0,0,0,0,0,-0.0147,-0.0147,0,-0.0178,-0.0178,-0.0179,-0.0189,-0.0189,-0.0189,-0.0189,-0.0251,-0.0252,-0.0254,0,0,0,0,0,0,0,0,0,0,0,0,0,-0.0123,-0.0123,-0.0147,-0.0147,-0.0148,-0.0178,-0.0178,-0.0179,-0.019,-0.0189,-0.0189,-0.0189,-0.025,-0.0252,-0.0254,0,0,0,0,0,0,0,0,0,0,0,0,0,-0.0142,-0.0124,-0.0147,-0.0157,-0.0158,-0.0178,-0.0178,-0.0179,-0.019,-0.0189,-0.0189,-0.0189,-0.025,-0.0252,-0.0255,-0.0274,0,0,-0.0263,-0.0264,0,0,0,0,0,0,0,0,-0.0141,-0.0142,-0.0155,-0.0156,-0.0158,-0.018,-0.0193,-0.0212,-0.019,-0.0177,-0.0189,-0.0189,-0.023,-0.0234,-0.024,-0.0277,-0.0279,-0.0263,-0.0264,-0.0266,-0.0266,0,0,0,0,0,0,0,-0.0139,-0.0141,-0.0159,-0.0155,-0.0157,-0.0169,-0.0171,-0.0196,-0.0205,-0.0178,-0.0179,-0.0183,-0.0231,-0.0237,-0.0241,-0.028,-0.0263,-0.0265,-0.0267,-0.0268,-0.0318,-0.0318,0,0,0,0,0,0,-0.0135,-0.014,-0.0158,-0.016,-0.0149,-0.0169,-0.0172,-0.0173,-0.0204,-0.0208,-0.0183,-0.0184,-0.0233,-0.0238,-0.0244,-0.0251,-0.0265,-0.0268,-0.0269,-0.0318,-0.0318,-0.0318,0,0,0,0,0,0,-0.0134,-0.0136,-0.0157,-0.0151,-0.0155,-0.017,-0.0171,-0.0173,-0.0177,-0.0207,-0.0212,-0.0183,-0.0233,-0.024,-0.0259,-0.0254,-0.0269,-0.0271,-0.0319,-0.0318,-0.0318,-0.0277,0,0,0,0,0,0,-0.0133,-0.0135,-0.0137,-0.0151,-0.0155,-0.0163,-0.0171,-0.0174,-0.018,-0.018,-0.0209,-0.0215,-0.0233,-0.0255,-0.0261,-0.0258,-0.0274,-0.0319,-0.0319,-0.0318,-0.0279,-0.0276,-0.0273,0,0,0,0,0,-0.0132,-0.0132,-0.0136,-0.0139,-0.0155,-0.0163,-0.0166,-0.0176,-0.018,-0.0179,-0.0197,-0.0214,-0.0257,-0.0257,-0.0265,-0.0262,-0.0319,-0.0319,-0.0318,-0.028,-0.0276,-0.0273,0,0,0,0,0,0,-0.0118,-0.0134,-0.0139,-0.0142,-0.015,-0.0165,-0.0167,-0.0174,-0.0187,-0.0188,-0.0214,-0.0221,-0.0235,-0.0255,-0.0254,-0.0275,-0.029,-0.0291,-0.0258,-0.0255,-0.0252,-0.0241,-0.0276,0,0,0,0,0,-0.0116,-0.0124,-0.0135,-0.0138,-0.014,-0.0153,-0.0159,-0.0164,-0.0177,-0.0182,-0.0202,-0.0223,-0.0241,-0.0252,-0.0272,-0.0287,-0.0302,-0.0289,-0.0286,-0.0283,-0.028,-0.0299,-0.0298,-0.0316,-0.0316,-0.0316,0,0,-0.0114,-0.0123,-0.0128,-0.0137,-0.0144,-0.0141,-0.0155,-0.0159,-0.0157,-0.0188,-0.0193,-0.0215,-0.0242,-0.0254,-0.0262,-0.027,-0.0285,-0.0283,-0.028,-0.0278,-0.0299,-0.0297,-0.0295,-0.0316,-0.0316,-0.0316,0,0,-0.0107,-0.0116,-0.0117,-0.0119,-0.0127,-0.0133,-0.0132,-0.0143,-0.0147,-0.0157,-0.0175,-0.0193,-0.0223,-0.0238,-0.0251,-0.0245,-0.0268,-0.025,-0.0228,-0.0246,-0.0245,-0.0244,-0.0255,-0.0255,-0.0249,-0.0249,-0.0249,0,-0.0096,-0.01,-0.0117,-0.0112,-0.011,-0.0126,-0.0116,-0.0124,-0.0139,-0.014,-0.0153,-0.0189,-0.0215,-0.0226,-0.0222,-0.0238,-0.0249,-0.0238,-0.0242,-0.0241,-0.0241,-0.0253,-0.0254,-0.0247,-0.0247,-0.0247,-0.0247,0,-0.0088,-0.0086,-0.0084,-0.0083,-0.0085,-0.0079,-0.0088,-0.0089,-0.0099,-0.0106,-0.012,-0.0155,-0.0174,-0.0186,-0.0204,-0.0211,-0.0219,-0.0235,-0.0249,-0.0236,-0.025,-0.0251,-0.0244,-0.0244,-0.0245,-0.0246,0,0,-0.0059,-0.0075,-0.0069,-0.0064,-0.0066,-0.0064,-0.0059,-0.0057,-0.0046,-0.0073,-0.0066,-0.0105,-0.0121,-0.0137,-0.0163,-0.0183,-0.0192,-0.0204,-0.0206,-0.0211,-0.0225,-0.0217,-0.0219,-0.0207,-0.0207,-0.0207,-0.0233,0,-0.0037,-0.0028,-0.004,-0.0021,-0.0012,-0.0022,-0.0016,-0.0018,-0.0021,-0.0019,-0.0057,-0.0064,-0.0103,-0.011,-0.0135,-0.0175,-0.0195,-0.0183,-0.024,-0.0242,-0.0234,-0.022,-0.0171,-0.0189,-0.0235,-0.0235,-0.0235,0,-0.0011,-0.001,0.0005,0.0011,0.0016,0.0025,0.0042,0.0046,0.0043,0.0038,0.0023,-0.0002,-0.0033,-0.007,-0.0133,-0.0122,-0.0168,-0.0205,-0.0208,-0.0216,-0.0237,-0.0211,-0.0191,-0.0272,-0.0238,-0.0238,-0.0238,0,0.0023,0.0031,0.0041,0.0045,0.0045,0.0055,0.006,0.0067,0.0084,0.0079,0.0093,0.0047,0.0033,-0.0035,-0.0105,-0.012,-0.0171,-0.0204,-0.0243,-0.0243,-0.0221,-0.0218,-0.0282,-0.0252,-0.0252,-0.0252,-0.0252,0,0.0056,0.0071,0.0058,0.0069,0.0094,0.0084,0.012,0.012,0.0136,0.0174,0.0126,0.0149,0.0041,0.0003,-0.0079,-0.0152,-0.0151,-0.0233,-0.0248,-0.0205,-0.0201,-0.0287,-0.0342,-0.0253,-0.0253,-0.0253,-0.0253,0,0.0089,0.0081,0.01,0.0104,0.011,0.0129,0.0161,0.019,0.0197,0.0248,0.0249,0.0225,0.0182,0.0082,-0.0019,-0.0106,-0.0233,-0.0217,-0.0153,-0.016,-0.0286,-0.034,-0.044,-0.0493,-0.0273,-0.0273,-0.0272,0,0.0101,0.0112,0.0128,0.0146,0.015,0.0178,0.0204,0.0219,0.0261,0.0309,0.0341,0.0316,0.0328,0.0184,0.0037,-0.0098,-0.0209,-0.0174,-0.0205,-0.028,-0.0351,-0.041,-0.0452,-0.0159,-0.0158,-0.0157,-0.0156,0,0.0127,0.0134,0.0144,0.0184,0.0214,0.0253,0.0296,0.034,0.0377,0.043,0.0503,0.0519,0.0408,0.0306,0.011,0.0004,-0.0229,-0.0163,-0.0257,-0.0279,-0.0329,-0.039,-0.0156,-0.0149,-0.015,-0.0151,-0.0151,-0.0151,0.0144,0.0163,0.0183,0.0221,0.0261,0.0325,0.0368,0.0434,0.0515,0.0606,0.0624,0.067,0.0527,0.0283,0.012,-0.0144,-0.0182,-0.0228,-0.0289,-0.0344,-0.0389,-0.0136,-0.0139,-0.0139,-0.014,-0.0141,-0.0141,0,0.0169,0.0189,0.0223,0.0271,0.032,0.0341,0.0427,0.0475,0.0583,0.0682,0.0755,0.0736,0.0549,0.0306,-0.0025,-0.0227,-0.0332,-0.0342,-0.0411,-0.0452,-0.0228,-0.0216,-0.0214,-0.0214,-0.0214,-0.0214,-0.0214,-0.0214,0.0181,0.0215,0.0233,0.0309,0.0351,0.0412,0.0465,0.0544,0.0621,0.0735,0.0786,0.0814,0.0677,0.013,-0.0292,-0.04,-0.0555,-0.0559,-0.0684,-0.0517,-0.0511,-0.0505,-0.0507,-0.0566,-0.0567,-0.0868,-0.0871,-0.0873]}],[{"header":{"parameterUnit":"m.s-1","parameterCategory":2,"la1":30.2991,"la2":30.254,"lo1":-89.0895,"lo2":-89.0444,"dy":0.0017,"dx":0.0017,"nx":28,"ny":28,"refTime":"2024-06-18T21:00:00:Z","depth":"2","parameterNumber":2,"parameterNumberName":"U-component_of_CURRENTS"},"data":[0,0,0,0,0,0,0,0,0,0,0,0,0,0,0,0,0,0,0,0,0,0,0,0,0,0,0,0,0,0,0,0,0,0,0,0,0,0,0,0,0,0,0,0,0,0,0,0,0,0,0,0,0,0,0,0,0,0,0.243,0.243,0,0.2419,0.2419,0.2419,0.2387,0.2387,0.2387,0.2386,0.2359,0.2359,0.2358,0,0,0,0,0,0,0,0,0,0,0,0,0,0.2445,0.2444,0.243,0.243,0.2431,0.2419,0.2419,0.2418,0.2387,0.2387,0.2386,0.2386,0.2359,0.2359,0.2358,0,0,0,0,0,0,0,0,0,0,0,0,0,0.2433,0.2444,0.243,0.2416,0.2415,0.2419,0.2419,0.2418,0.2387,0.2387,0.2386,0.2386,0.2359,0.2359,0.2358,0.2366,0,0,0.2357,0.2356,0,0,0,0,0,0,0,0,0.2434,0.2432,0.2418,0.2417,0.2416,0.2407,0.2414,0.2401,0.2388,0.2394,0.2386,0.2385,0.2376,0.2374,0.2369,0.2365,0.2364,0.2357,0.2356,0.2356,0.2356,0,0,0,0,0,0,0,0.2435,0.2433,0.2423,0.2418,0.2417,0.2418,0.2415,0.2412,0.2386,0.2394,0.2392,0.2397,0.2375,0.237,0.2368,0.2363,0.2357,0.2356,0.2356,0.2356,0.2375,0.2376,0,0,0,0,0,0,0.2442,0.2434,0.2423,0.2423,0.2428,0.2418,0.2415,0.2408,0.2386,0.2383,0.2397,0.2395,0.2371,0.2369,0.2367,0.2384,0.2356,0.2356,0.2355,0.2374,0.2375,0.2376,0,0,0,0,0,0,0.2442,0.2441,0.2423,0.2431,0.2429,0.2419,0.2411,0.2408,0.2403,0.2389,0.2385,0.2396,0.237,0.2368,0.2366,0.2382,0.2355,0.2355,0.2373,0.2374,0.2375,0.2412,0,0,0,0,0,0,0.2443,0.2441,0.2441,0.2431,0.2429,0.2428,0.2412,0.2408,0.2409,0.2406,0.2388,0.2384,0.237,0.2367,0.2365,0.2381,0.2354,0.2372,0.2374,0.2375,0.241,0.2414,0.2418,0,0,0,0,0,0.2443,0.2443,0.2441,0.244,0.2429,0.2428,0.2427,0.2416,0.2409,0.2409,0.2398,0.2385,0.2376,0.2367,0.2365,0.2381,0.2371,0.2373,0.2375,0.2408,0.2413,0.2418,0,0,0,0,0,0,0.2445,0.2441,0.2437,0.2435,0.2434,0.2424,0.2426,0.2421,0.2412,0.2411,0.2392,0.2388,0.2396,0.2384,0.2375,0.2392,0.2373,0.2375,0.2399,0.2404,0.2409,0.2423,0.2354,0,0,0,0,0,0.2449,0.2451,0.2445,0.2446,0.2445,0.2438,0.2438,0.2433,0.2425,0.242,0.2408,0.2401,0.2403,0.2399,0.2397,0.2403,0.2414,0.2413,0.2418,0.2421,0.2433,0.2468,0.2477,0.2382,0.2382,0.2382,0,0,0.245,0.2451,0.245,0.2448,0.2445,0.2446,0.2435,0.2439,0.2444,0.242,0.242,0.2417,0.241,0.2418,0.242,0.2407,0.2454,0.2424,0.2427,0.2437,0.2471,0.2481,0.2489,0.2383,0.2383,0.2383,0,0,0.2459,0.2453,0.2459,0.2457,0.2462,0.2459,0.2463,0.2456,0.2455,0.2458,0.245,0.2459,0.2446,0.2452,0.2452,0.2481,0.2479,0.2478,0.2506,0.254,0.2549,0.2556,0.258,0.2589,0.2475,0.2475,0.2475,0,0.2459,0.246,0.2461,0.2465,0.2465,0.2466,0.2468,0.2472,0.2468,0.2477,0.2461,0.2475,0.2467,0.2493,0.2501,0.2493,0.2507,0.2485,0.2547,0.2554,0.2562,0.2584,0.2594,0.2477,0.2477,0.2477,0.2477,0,0.247,0.2469,0.2471,0.2475,0.248,0.2481,0.2488,0.2498,0.2498,0.2503,0.2528,0.2523,0.2533,0.2534,0.2523,0.2572,0.2565,0.2552,0.2535,0.2574,0.2594,0.2604,0.248,0.2479,0.2479,0.2478,0,0,0.2457,0.2474,0.2471,0.2473,0.2481,0.2484,0.2506,0.2523,0.2545,0.2548,0.2574,0.2587,0.2594,0.2596,0.2594,0.262,0.2679,0.2608,0.2609,0.2633,0.2752,0.2735,0.2744,0.2677,0.2679,0.2681,0.2746,0,0.2456,0.2464,0.2477,0.2482,0.2479,0.2496,0.2519,0.2542,0.2559,0.2586,0.2605,0.2625,0.2615,0.2624,0.2655,0.2677,0.2706,0.2662,0.271,0.2711,0.2693,0.2755,0.2475,0.2509,0.2755,0.2757,0.2758,0,0.2447,0.2455,0.2459,0.2483,0.2485,0.2498,0.2535,0.2559,0.2609,0.2624,0.2659,0.2669,0.2718,0.2695,0.2769,0.2742,0.2756,0.2767,0.2769,0.275,0.2713,0.2511,0.2517,0.2774,0.2773,0.2772,0.277,0,0.2418,0.2436,0.2441,0.2442,0.2474,0.2493,0.252,0.2569,0.2597,0.2654,0.2679,0.273,0.2764,0.2797,0.2828,0.2802,0.2904,0.2867,0.2866,0.2864,0.2634,0.2609,0.2922,0.2922,0.2922,0.2922,0.2921,0,0.2396,0.2393,0.2429,0.2423,0.2445,0.2482,0.2517,0.2556,0.2616,0.2653,0.2701,0.2741,0.2794,0.2849,0.286,0.2908,0.2935,0.2893,0.2891,0.2639,0.2615,0.2847,0.2837,0.2924,0.2924,0.2923,0.2923,0,0.2349,0.2372,0.2372,0.2409,0.2426,0.2442,0.2503,0.2531,0.2603,0.2655,0.2675,0.2768,0.2847,0.2896,0.2961,0.2955,0.2989,0.2993,0.2697,0.266,0.2913,0.2904,0.2998,0.2998,0.2998,0.2998,0.2998,0,0.2323,0.2316,0.2346,0.2352,0.2367,0.2402,0.2428,0.2507,0.2542,0.2664,0.2687,0.2792,0.2831,0.2942,0.2931,0.2956,0.3019,0.2741,0.2649,0.2939,0.2926,0.2917,0.2909,0.2346,0.2341,0.2336,0.2333,0,0.2262,0.2273,0.2282,0.2295,0.2316,0.2334,0.2384,0.2405,0.2505,0.2553,0.2631,0.2674,0.2779,0.2686,0.275,0.2726,0.2715,0.266,0.3033,0.2391,0.2335,0.232,0.233,0.2295,0.2299,0.2301,0.2303,0.2305,0.2218,0.2207,0.2223,0.2224,0.2249,0.2246,0.2213,0.2278,0.2308,0.2334,0.2468,0.2449,0.2489,0.2441,0.2389,0.2363,0.2556,0.2431,0.2438,0.2451,0.2385,0.2335,0.2281,0.2285,0.2288,0.2291,0.2293,0,0.2143,0.2145,0.2146,0.2138,0.2107,0.2148,0.2159,0.2107,0.2081,0.2159,0.2169,0.2009,0.1939,0.2008,0.1897,0.1933,0.1854,0.1868,0.1716,0.1757,0.1792,0.1687,0.14,0.1398,0.1395,0.1393,0,0,0.2109,0.2072,0.2058,0.1983,0.1969,0.1887,0.1845,0.1807,0.1828,0.1789,0.1756,0.1821,0.1935,0.1628,0.16,0.1484,0.1606,0.1425,0.2138,0.1998,0.203,0.2115,0.2,0,0,0,0,0]},{"header":{"parameterUnit":"m.s-1","parameterCategory":2,"la1":30.2991,"la2":30.254,"lo1":-89.0895,"lo2":-89.0444,"dy":0.0017,"dx":0.0017,"nx":28,"ny":28,"refTime":"2024-06-18T21:00:00:Z","depth":"2","parameterNumber":3,"parameterNumberName":"V-component_of_CURRENTS"},"data":[0,0,0,0,0,0,0,0,0,0,0,0,0,0,0,0,0,0,0,0,0,0,0,0,0,0,0,0,0,0,0,0,0,0,0,0,0,0,0,0,0,0,0,0,0,0,0,0,0,0,0,0,0,0,0,0,0,0,-0.0142,-0.0142,0,-0.0173,-0.0174,-0.0174,-0.0187,-0.0187,-0.0187,-0.0187,-0.0251,-0.0252,-0.0254,0,0,0,0,0,0,0,0,0,0,0,0,0,-0.0117,-0.0117,-0.0142,-0.0142,-0.0143,-0.0173,-0.0174,-0.0174,-0.0187,-0.0187,-0.0187,-0.0187,-0.025,-0.0252,-0.0254,0,0,0,0,0,0,0,0,0,0,0,0,0,-0.0135,-0.0117,-0.0142,-0.0153,-0.0154,-0.0173,-0.0174,-0.0174,-0.0187,-0.0187,-0.0187,-0.0187,-0.0249,-0.0252,-0.0254,-0.0271,0,0,-0.0262,-0.0263,0,0,0,0,0,0,0,0,-0.0134,-0.0136,-0.0151,-0.0152,-0.0154,-0.0176,-0.0188,-0.0208,-0.0187,-0.0174,-0.0187,-0.0187,-0.0229,-0.0233,-0.0238,-0.0274,-0.0277,-0.0262,-0.0264,-0.0265,-0.0266,0,0,0,0,0,0,0,-0.0133,-0.0135,-0.0154,-0.0151,-0.0153,-0.0165,-0.0167,-0.0192,-0.0202,-0.0175,-0.0176,-0.018,-0.023,-0.0236,-0.024,-0.0278,-0.0262,-0.0265,-0.0266,-0.0267,-0.0317,-0.0317,0,0,0,0,0,0,-0.0129,-0.0134,-0.0153,-0.0155,-0.0144,-0.0165,-0.0168,-0.0169,-0.0201,-0.0205,-0.018,-0.0181,-0.0231,-0.0237,-0.0242,-0.025,-0.0265,-0.0268,-0.0269,-0.0317,-0.0317,-0.0317,0,0,0,0,0,0,-0.0128,-0.013,-0.0152,-0.0146,-0.0149,-0.0166,-0.0167,-0.017,-0.0173,-0.0205,-0.021,-0.0181,-0.0231,-0.0239,-0.0258,-0.0253,-0.0269,-0.0271,-0.0317,-0.0317,-0.0317,-0.0275,0,0,0,0,0,0,-0.0127,-0.0129,-0.0131,-0.0145,-0.0149,-0.0158,-0.0167,-0.017,-0.0176,-0.0177,-0.0207,-0.0213,-0.0232,-0.0254,-0.0261,-0.0257,-0.0273,-0.0318,-0.0317,-0.0317,-0.0276,-0.0273,-0.027,0,0,0,0,0,-0.0126,-0.0126,-0.013,-0.0133,-0.015,-0.0158,-0.0161,-0.0172,-0.0176,-0.0176,-0.0194,-0.0212,-0.0256,-0.0256,-0.0264,-0.0261,-0.0318,-0.0317,-0.0317,-0.0278,-0.0274,-0.027,0,0,0,0,0,0,-0.0111,-0.0127,-0.0133,-0.0136,-0.0145,-0.016,-0.0163,-0.017,-0.0184,-0.0185,-0.0212,-0.0219,-0.0234,-0.0254,-0.0253,-0.0273,-0.0289,-0.029,-0.0256,-0.0253,-0.025,-0.024,-0.0275,0,0,0,0,0,-0.0109,-0.0117,-0.0129,-0.0132,-0.0134,-0.0147,-0.0153,-0.0159,-0.0173,-0.0179,-0.0199,-0.022,-0.0238,-0.025,-0.027,-0.0284,-0.03,-0.0287,-0.0283,-0.0281,-0.0278,-0.0296,-0.0295,-0.0315,-0.0315,-0.0315,0,0,-0.0107,-0.0116,-0.0121,-0.0131,-0.0138,-0.0134,-0.015,-0.0154,-0.0152,-0.0185,-0.019,-0.0212,-0.024,-0.0251,-0.026,-0.0267,-0.0282,-0.028,-0.0277,-0.0276,-0.0296,-0.0294,-0.0292,-0.0315,-0.0315,-0.0315,0,0,-0.01,-0.0109,-0.011,-0.0112,-0.012,-0.0127,-0.0126,-0.0137,-0.0142,-0.0153,-0.0172,-0.0189,-0.0219,-0.0235,-0.0247,-0.0241,-0.0264,-0.0246,-0.0223,-0.0241,-0.024,-0.0239,-0.0249,-0.0249,-0.0244,-0.0244,-0.0244,0,-0.009,-0.0093,-0.0111,-0.0104,-0.0103,-0.012,-0.0109,-0.0117,-0.0134,-0.0135,-0.0149,-0.0185,-0.0211,-0.0221,-0.0218,-0.0233,-0.0244,-0.0235,-0.0237,-0.0236,-0.0236,-0.0247,-0.0247,-0.0242,-0.0242,-0.0243,-0.0243,0,-0.0081,-0.0079,-0.0077,-0.0075,-0.0077,-0.0071,-0.008,-0.0082,-0.0092,-0.01,-0.0114,-0.015,-0.0169,-0.0181,-0.0199,-0.0205,-0.0214,-0.023,-0.0245,-0.0231,-0.0244,-0.0245,-0.0239,-0.024,-0.0241,-0.0241,0,0,-0.0053,-0.0068,-0.0062,-0.0057,-0.0058,-0.0056,-0.0051,-0.0049,-0.0037,-0.0066,-0.0058,-0.0098,-0.0115,-0.0131,-0.0157,-0.0177,-0.0184,-0.0198,-0.02,-0.0204,-0.0217,-0.0211,-0.0212,-0.02,-0.02,-0.02,-0.0224,0,-0.0032,-0.0022,-0.0033,-0.0014,-0.0004,-0.0014,-0.0006,-0.0008,-0.0012,-0.001,-0.0049,-0.0057,-0.0096,-0.0104,-0.0129,-0.0168,-0.0187,-0.0176,-0.0233,-0.0234,-0.0228,-0.0213,-0.0187,-0.0206,-0.0226,-0.0226,-0.0226,0,-0.0006,-0.0004,0.0012,0.0019,0.0024,0.0033,0.0051,0.0055,0.0053,0.0048,0.0032,0.0006,-0.0026,-0.0063,-0.0126,-0.0116,-0.0161,-0.0197,-0.02,-0.021,-0.0231,-0.0225,-0.0208,-0.0229,-0.0229,-0.0229,-0.0228,0,0.0027,0.0036,0.0047,0.0052,0.0054,0.0064,0.0068,0.0075,0.0093,0.0088,0.0102,0.0055,0.0039,-0.0028,-0.0097,-0.0113,-0.0163,-0.0196,-0.0235,-0.0235,-0.0232,-0.0231,-0.0242,-0.0242,-0.0242,-0.0242,-0.0242,0,0.006,0.0075,0.0064,0.0076,0.01,0.0091,0.0127,0.0127,0.0144,0.0182,0.0134,0.0157,0.0047,0.001,-0.0071,-0.0145,-0.0143,-0.0225,-0.024,-0.0216,-0.0213,-0.0253,-0.0254,-0.0243,-0.0243,-0.0242,-0.0242,0,0.0093,0.0086,0.0106,0.0111,0.0116,0.0135,0.0166,0.0196,0.0204,0.0254,0.0255,0.0232,0.0188,0.0088,-0.0012,-0.0099,-0.0179,-0.0207,-0.0166,-0.0175,-0.025,-0.0249,-0.0264,-0.0264,-0.0264,-0.0264,-0.0264,0,0.0105,0.0118,0.0134,0.0152,0.0156,0.0183,0.0209,0.0223,0.0266,0.0316,0.0347,0.0322,0.0332,0.0188,0.0037,-0.0098,-0.014,-0.0189,-0.0224,-0.0239,-0.0252,-0.025,-0.0249,-0.0204,-0.0203,-0.0203,-0.0203,0,0.0134,0.0141,0.0154,0.019,0.0219,0.0258,0.03,0.0344,0.0382,0.0436,0.0508,0.0522,0.0405,0.028,0.0082,-0.0015,-0.0169,-0.0186,-0.0206,-0.02,-0.0184,-0.0196,-0.0196,-0.0199,-0.0199,-0.02,-0.02,-0.02,0.0152,0.0172,0.0193,0.0228,0.0266,0.0329,0.0371,0.0432,0.0513,0.0581,0.0609,0.0609,0.0484,0.023,0.0085,-0.0108,-0.0113,-0.0209,-0.021,-0.0212,-0.0198,-0.0182,-0.0194,-0.0195,-0.0195,-0.0195,-0.0195,0,0.018,0.0198,0.0231,0.0276,0.0325,0.0342,0.0428,0.0464,0.0563,0.0616,0.0669,0.0553,0.0438,0.0268,0.0003,-0.014,-0.0157,-0.0205,-0.0197,-0.0199,-0.0201,-0.0187,-0.0181,-0.0181,-0.0182,-0.0182,0,0,0.0192,0.0228,0.0246,0.0316,0.0353,0.0404,0.0456,0.0511,0.0549,0.0604,0.06,0.0609,0.0451,0.0259,0.0092,-0.0061,-0.0111,-0.0093,-0.0087,-0.006,-0.0061,-0.0182,-0.0159,0,0,0,0,0]}],[{"header":{"parameterUnit":"m.s-1","parameterCategory":2,"la1":30.2991,"la2":30.254,"lo1":-89.0895,"lo2":-89.0444,"dy":0.0017,"dx":0.0017,"nx":28,"ny":28,"refTime":"2024-06-18T21:00:00:Z","depth":"4","parameterNumber":2,"parameterNumberName":"U-component_of_CURRENTS"},"data":[0,0,0,0,0,0,0,0,0,0,0,0,0,0,0,0,0,0,0,0,0,0,0,0,0,0,0,0,0,0,0,0,0,0,0,0,0,0,0,0,0,0,0,0,0,0,0,0,0,0,0,0,0,0,0,0,0,0,0.1526,0.1527,0,0.154,0.1541,0.1541,0.1582,0.1583,0.1584,0.1585,0.1628,0.1628,0.1628,0,0,0,0,0,0,0,0,0,0,0,0,0,0.1524,0.1524,0.1526,0.1527,0.1527,0.154,0.1541,0.1541,0.1582,0.1583,0.1584,0.1585,0.1628,0.1628,0.1628,0,0,0,0,0,0,0,0,0,0,0,0,0,0.153,0.1524,0.1526,0.1549,0.1552,0.154,0.1541,0.1541,0.1582,0.1583,0.1584,0.1586,0.1628,0.1628,0.1628,0.1602,0,0,0.163,0.163,0,0,0,0,0,0,0,0,0.153,0.153,0.1546,0.1548,0.155,0.1561,0.1556,0.1563,0.1581,0.157,0.1585,0.1586,0.1607,0.161,0.1608,0.1604,0.1606,0.163,0.163,0.163,0.163,0,0,0,0,0,0,0,0.1529,0.1529,0.1531,0.1546,0.1549,0.1555,0.1558,0.1557,0.1581,0.1571,0.1574,0.1576,0.1609,0.1607,0.1609,0.1607,0.163,0.163,0.163,0.163,0.1703,0.1705,0,0,0,0,0,0,0.1527,0.1529,0.1531,0.1532,0.1544,0.1554,0.1557,0.1556,0.158,0.1585,0.1575,0.1578,0.1606,0.1609,0.1611,0.1684,0.163,0.163,0.1631,0.1701,0.1703,0.1705,0,0,0,0,0,0,0.1527,0.1527,0.153,0.1532,0.1533,0.1553,0.1551,0.1555,0.1591,0.1583,0.1589,0.161,0.1607,0.1611,0.1644,0.1683,0.163,0.1631,0.1699,0.1702,0.1704,0.1765,0,0,0,0,0,0,0.1527,0.1527,0.1544,0.1531,0.1532,0.1549,0.155,0.1555,0.1587,0.1593,0.1614,0.1617,0.1609,0.1644,0.1645,0.1682,0.1631,0.1697,0.1701,0.1704,0.1761,0.177,0.1777,0,0,0,0,0,0.1527,0.1537,0.1545,0.1546,0.1549,0.1549,0.1552,0.157,0.1588,0.1607,0.1626,0.1619,0.1665,0.1645,0.1646,0.1685,0.1696,0.17,0.1703,0.1758,0.1768,0.1777,0,0,0,0,0,0,0.1549,0.1542,0.155,0.1561,0.1568,0.1558,0.1581,0.1589,0.1617,0.1636,0.1631,0.1635,0.168,0.1674,0.1652,0.1717,0.1683,0.1687,0.1724,0.1734,0.1741,0.1734,0.1631,0,0,0,0,0,0.1559,0.1567,0.1562,0.1575,0.1584,0.159,0.1601,0.1612,0.1624,0.1639,0.1652,0.1671,0.1688,0.1706,0.1714,0.1744,0.1741,0.1774,0.1782,0.1788,0.1784,0.1814,0.1824,0.1718,0.1718,0.1718,0,0,0.1571,0.157,0.1576,0.1581,0.1593,0.1605,0.1602,0.1628,0.1646,0.1638,0.1684,0.1697,0.1702,0.1739,0.176,0.1744,0.1821,0.1793,0.1799,0.1791,0.1819,0.1829,0.1838,0.172,0.172,0.172,0,0,0.1585,0.1602,0.1612,0.1623,0.1643,0.1643,0.1659,0.167,0.1692,0.1723,0.173,0.1765,0.1789,0.18,0.1807,0.1863,0.1859,0.1881,0.1918,0.1948,0.1956,0.1964,0.1986,0.1995,0.1889,0.1889,0.1889,0,0.1607,0.1611,0.1618,0.1633,0.1645,0.1665,0.168,0.17,0.1723,0.174,0.1753,0.1803,0.1814,0.185,0.1879,0.188,0.1896,0.188,0.1957,0.1964,0.1971,0.1992,0.2001,0.1892,0.1892,0.1891,0.1891,0,0.1614,0.1637,0.165,0.1671,0.1685,0.1707,0.1725,0.1757,0.1787,0.18,0.1853,0.187,0.1899,0.1919,0.1918,0.1977,0.1975,0.196,0.193,0.1985,0.2004,0.2013,0.1897,0.1896,0.1895,0.1894,0,0,0.1605,0.1646,0.1655,0.1671,0.1709,0.1713,0.1758,0.1785,0.1816,0.186,0.1897,0.1944,0.1965,0.1975,0.1989,0.2021,0.2092,0.2023,0.2023,0.2039,0.2165,0.204,0.2036,0.21,0.2102,0.2103,0.2165,0,0.1613,0.1642,0.166,0.1696,0.171,0.1744,0.1773,0.1809,0.1848,0.1893,0.1931,0.1976,0.1984,0.2015,0.2051,0.2079,0.2115,0.2076,0.2114,0.2114,0.1991,0.2042,0.2108,0.2171,0.2172,0.2174,0.2175,0,0.16,0.1625,0.166,0.1698,0.1709,0.1738,0.1786,0.1818,0.1884,0.192,0.1978,0.2009,0.2075,0.2071,0.2149,0.2131,0.2158,0.2174,0.2176,0.2037,0.2003,0.2102,0.2189,0.2188,0.2187,0.2186,0.2185,0,0.1558,0.1614,0.1641,0.1659,0.1712,0.1741,0.1774,0.1833,0.1864,0.1952,0.1987,0.2059,0.211,0.2154,0.2205,0.2191,0.228,0.2255,0.2164,0.2156,0.2223,0.2214,0.2306,0.2306,0.2306,0.2306,0.2306,0,0.1526,0.1552,0.1635,0.1648,0.1682,0.173,0.1775,0.1819,0.1892,0.1926,0.2009,0.2041,0.2139,0.2198,0.2226,0.2222,0.2302,0.2172,0.2162,0.2249,0.2243,0.2229,0.2219,0.2308,0.2308,0.2307,0.2307,0,0.146,0.1519,0.1556,0.1635,0.1662,0.169,0.1768,0.1795,0.188,0.193,0.1963,0.2061,0.213,0.2206,0.2284,0.2236,0.225,0.2231,0.2333,0.2328,0.2099,0.2092,0.2115,0.2111,0.2107,0.2105,0.2102,0,0.142,0.144,0.1537,0.1565,0.1608,0.1664,0.1694,0.1781,0.1807,0.1916,0.1923,0.2031,0.2085,0.2087,0.2184,0.2225,0.2207,0.2196,0.2126,0.2091,0.208,0.2078,0.2076,0.2097,0.2096,0.2095,0.2094,0,0.1351,0.1408,0.1443,0.1505,0.1552,0.1582,0.1636,0.1641,0.1733,0.1829,0.1832,0.1865,0.194,0.1998,0.2058,0.2081,0.2186,0.216,0.2166,0.2101,0.207,0.2061,0.2063,0.2083,0.2084,0.2085,0.2086,0,0.131,0.1322,0.139,0.1425,0.1483,0.1482,0.1516,0.1536,0.1571,0.1682,0.1686,0.1797,0.1908,0.1926,0.1976,0.1995,0.196,0.1887,0.1907,0.1921,0.1832,0.1762,0.1674,0,0,0,0,0,0.1263,0.127,0.1301,0.1334,0.1385,0.1417,0.1468,0.1504,0.1592,0.1548,0.1607,0.166,0.1713,0.178,0.1765,0.1918,0.1988,0.1892,0.1919,0.2018,0.2032,0.1947,0,0,0,0,0,0,0.1236,0.127,0.1272,0.1254,0.1261,0.1298,0.1326,0.138,0.1354,0.1453,0.1492,0.1573,0.166,0.1718,0.1741,0.1764,0.1748,0.1973,0.1969,0.2011,0.2023,0.2034,0.1951,0,0,0,0,0]},{"header":{"parameterUnit":"m.s-1","parameterCategory":2,"la1":30.2991,"la2":30.254,"lo1":-89.0895,"lo2":-89.0444,"dy":0.0017,"dx":0.0017,"nx":28,"ny":28,"refTime":"2024-06-18T21:00:00:Z","depth":"4","parameterNumber":3,"parameterNumberName":"V-component_of_CURRENTS"},"data":[0,0,0,0,0,0,0,0,0,0,0,0,0,0,0,0,0,0,0,0,0,0,0,0,0,0,0,0,0,0,0,0,0,0,0,0,0,0,0,0,0,0,0,0,0,0,0,0,0,0,0,0,0,0,0,0,0,0,0.0023,0.0022,0,-0.0004,-0.0005,-0.0005,-0.0031,-0.0032,-0.0032,-0.0032,-0.0082,-0.0083,-0.0084,0,0,0,0,0,0,0,0,0,0,0,0,0,0.0045,0.0045,0.0023,0.0022,0.0022,-0.0004,-0.0005,-0.0005,-0.0031,-0.0032,-0.0032,-0.0032,-0.0082,-0.0083,-0.0084,0,0,0,0,0,0,0,0,0,0,0,0,0,0.0028,0.0045,0.0023,0.0006,0.0005,-0.0004,-0.0005,-0.0005,-0.0031,-0.0032,-0.0032,-0.0032,-0.0081,-0.0083,-0.0084,-0.0086,0,0,-0.0089,-0.009,0,0,0,0,0,0,0,0,0.0029,0.0027,0.0009,0.0007,0.0006,-0.0014,-0.0015,-0.0033,-0.0031,-0.0018,-0.0032,-0.0033,-0.0061,-0.0064,-0.0069,-0.0088,-0.009,-0.0089,-0.009,-0.0091,-0.0092,0,0,0,0,0,0,0,0.003,0.0028,0.0011,0.0009,0.0007,-0.0002,-0.0005,-0.0018,-0.0038,-0.002,-0.0021,-0.0023,-0.0062,-0.0067,-0.007,-0.0091,-0.0089,-0.0091,-0.0092,-0.0092,-0.0116,-0.0115,0,0,0,0,0,0,0.0036,0.0029,0.0012,0.001,0.0017,-0.0002,-0.0005,-0.0008,-0.0037,-0.0042,-0.0023,-0.0024,-0.0064,-0.0068,-0.0072,-0.0069,-0.0091,-0.0093,-0.0093,-0.0116,-0.0116,-0.0115,0,0,0,0,0,0,0.0036,0.0034,0.0013,0.002,0.0017,-0.0001,-0.0005,-0.0008,-0.0015,-0.0039,-0.0044,-0.0026,-0.0065,-0.007,-0.008,-0.0072,-0.0093,-0.0095,-0.0117,-0.0116,-0.0116,-0.0068,0,0,0,0,0,0,0.0037,0.0035,0.0034,0.002,0.0017,0.001,-0.0004,-0.0009,-0.0015,-0.0018,-0.0044,-0.0049,-0.0065,-0.0078,-0.0082,-0.0074,-0.0096,-0.0117,-0.0116,-0.0116,-0.007,-0.0066,-0.0062,0,0,0,0,0,0.0038,0.0039,0.0034,0.0032,0.0016,0.001,0.0008,-0.0007,-0.0015,-0.0016,-0.0031,-0.0048,-0.0077,-0.0079,-0.0084,-0.0076,-0.0117,-0.0116,-0.0116,-0.0072,-0.0067,-0.0062,0,0,0,0,0,0,0.005,0.0037,0.003,0.0028,0.0021,0.0006,0.0004,-0.0005,-0.0017,-0.002,-0.0043,-0.0049,-0.0056,-0.0073,-0.0074,-0.0082,-0.01,-0.01,-0.0065,-0.0061,-0.0057,-0.0042,-0.0097,0,0,0,0,0,0.0053,0.0051,0.0038,0.0038,0.0033,0.0019,0.0015,0.0006,-0.0006,-0.0012,-0.0028,-0.0045,-0.0056,-0.0063,-0.0078,-0.0081,-0.0097,-0.008,-0.0076,-0.0073,-0.0064,-0.0077,-0.0073,-0.0113,-0.0113,-0.0113,0,0,0.0058,0.0051,0.005,0.004,0.0032,0.0033,0.0015,0.0011,0.0015,-0.0015,-0.0016,-0.0033,-0.0054,-0.0057,-0.0061,-0.007,-0.0072,-0.0072,-0.0069,-0.0062,-0.0075,-0.0071,-0.0068,-0.0112,-0.0112,-0.0112,0,0,0.0071,0.0061,0.0063,0.0058,0.005,0.0043,0.0044,0.0031,0.0027,0.0024,0.0006,-0.0002,-0.0025,-0.0031,-0.0039,-0.0023,-0.0052,-0.0032,0.0,-0.0012,-0.0009,-0.0006,-0.0028,-0.0028,-0.003,-0.003,-0.0029,0,0.0079,0.0079,0.0064,0.0066,0.0069,0.005,0.0059,0.0053,0.0041,0.0047,0.0028,0.0012,-0.0009,-0.0002,0.0002,-0.0013,-0.003,-0.0014,-0.0006,-0.0004,-0.0002,-0.0025,-0.0025,-0.0027,-0.0027,-0.0028,-0.0028,0,0.0093,0.0093,0.0095,0.0093,0.0095,0.0098,0.0092,0.0095,0.0087,0.0084,0.0086,0.0059,0.0051,0.0042,0.0026,0.0034,0.0014,-0.0,-0.0015,0.0005,-0.0021,-0.0022,-0.0024,-0.0025,-0.0025,-0.0026,0,0,0.0113,0.0106,0.0108,0.0117,0.011,0.0118,0.0128,0.0139,0.0157,0.0137,0.0156,0.0134,0.0119,0.0109,0.0087,0.0078,0.0071,0.0048,0.0046,0.003,0.0036,0.0022,0.0019,0.0058,0.0058,0.0059,0.0009,0,0.013,0.0142,0.0136,0.016,0.0167,0.0163,0.0182,0.0191,0.0189,0.0201,0.0179,0.018,0.0144,0.0139,0.0125,0.0089,0.0072,0.0085,0.0015,0.0013,0.0002,0.0019,0.006,0.0008,0.0008,0.0008,0.0008,0,0.0149,0.0155,0.0175,0.0201,0.0207,0.0222,0.0257,0.027,0.0279,0.028,0.0271,0.0245,0.0231,0.0192,0.0141,0.015,0.0097,0.0064,0.006,0.0033,-0.0002,-0.0016,0.0006,0.0006,0.0006,0.0006,0.0006,0,0.0176,0.019,0.0211,0.0215,0.0235,0.0257,0.0275,0.0295,0.0322,0.0323,0.0337,0.0306,0.0294,0.0233,0.0153,0.0145,0.0092,0.0069,0.0005,0.0002,0.0008,0.0005,0.0028,0.0028,0.0028,0.0028,0.0029,0,0.02,0.0221,0.0226,0.0237,0.0282,0.0288,0.034,0.0353,0.038,0.0415,0.0375,0.0387,0.0304,0.0257,0.0175,0.0091,0.0103,0.0017,-0.0005,0.0027,0.0028,0.0006,0.0005,0.0027,0.0027,0.0027,0.0028,0,0.0229,0.0227,0.0255,0.0279,0.0292,0.0326,0.0381,0.0421,0.0437,0.0477,0.0478,0.0452,0.0389,0.0298,0.0199,0.0126,0.0042,0.0003,0.0045,0.0024,-0.0049,-0.0048,-0.0069,-0.007,-0.0071,-0.0071,-0.0072,0,0.0245,0.0257,0.0285,0.0309,0.0322,0.037,0.0411,0.0444,0.0483,0.0515,0.0536,0.0491,0.0454,0.0314,0.0211,0.0057,0.0027,-0.0025,-0.0036,-0.0036,-0.0056,-0.0054,-0.0052,-0.0073,-0.0073,-0.0073,-0.0073,0,0.0278,0.0284,0.0308,0.0343,0.0383,0.0434,0.0487,0.0519,0.0558,0.0579,0.0579,0.0503,0.0436,0.0316,0.0197,0.0085,0.0009,-0.0033,-0.0032,-0.0043,-0.0041,-0.0059,-0.0057,-0.0076,-0.0075,-0.0075,-0.0075,0,0.0307,0.0323,0.0343,0.0375,0.0427,0.047,0.0503,0.0543,0.0577,0.0604,0.0602,0.0526,0.0487,0.033,0.0224,0.0113,0.0075,0.0025,0.0021,0.0022,0.006,0.0078,0.0068,0,0,0,0,0,0.0325,0.0333,0.0372,0.0398,0.0451,0.0465,0.0542,0.0572,0.0606,0.0607,0.0604,0.0535,0.0386,0.0333,0.0218,0.0198,0.0049,0.0058,-0.0012,-0.0088,-0.0086,-0.0058,0,0,0,0,0,0,0.0336,0.0366,0.0367,0.0405,0.0419,0.0471,0.0511,0.054,0.0546,0.0569,0.0499,0.0477,0.034,0.0435,0.02,0.0171,0.0106,-0.0003,-0.0006,-0.009,-0.0087,-0.0085,-0.0056,0,0,0,0,0]}]]